Kansas City International Airport Kansas City US
ICAO: KMCI
IATA: MCI
Category: Large
Scheduled Services: Yes

Elevation: 1026 ft
TransAlt. 18000 ft.

Airport Communications:
APP:120.95
ATIS:126.625
CLNC DEL:135.7
DEP:124.7
GND:121.65
COLUMBIA RDO:122.65
INTL TWR:125.75
UNICOM:122.95

KMCI Zoom In..

Runways:

(A) RW 01L length 10801 ft width 150 ft
ILS 110.50 / hdg 11

(B) RW 01R length 9500 ft width 150 ft
ILS 110.75 / hdg 11

(C) RW 09 length 9500 ft width 150 ft
ILS 109.70 / hdg 94

(D) RW 19L length 9500 ft width 150 ft
ILS 109.55 / hdg 191

(E) RW 19R length 10801 ft width 150 ft
ILS 109.10 / hdg 191

(F) RW 27 length 9500 ft width 150 ft
ILS 109.70 / hdg 274

Location; KMCI
Day. 06 / Time. 05.53 Zulu
* Altimeter: 29.97
* Temperature: 24° c. 75.2°f.
* Wind from: 130° Speed 06 kn.
Dewpoint: 21° c.
Visibility: 10 Statute Miles.
Clouds: Clear (automated report).

KMCI 060553Z 13006KT 10SM CLR 24/21 A2997 RMK AO2 SLP136 T02440206 10311 20239 403170189 53006 $


Wind From 130°
Speed 06 kn.

 
 
jpsmedia worldairports.se 2020   terms of use